Scottsdale, AZ

6:27 AM MST on July 21, 2017 (GMT -0700)
Scottsdale

Weather History for KSDL - April, 2013

Change the Weather History Date:

Monday, April 8, 2013

  Actual Average Record
Temperature  
Mean Temperature 68 °F -  
Max Temperature 80 °F 74 °F 91 °F (2014)
Min Temperature 54 °F 52 °F 44 °F (1999)
Cooling Degree Days 2    
Growing Degree Days 18 (Base 50)    
Moisture  
Dew Point 39 °F    
Average Humidity 35    
Maximum Humidity 64    
Minimum Humidity 17    
Precipitation  
Precipitation 0.10 in - - ()
Sea Level Pressure  
Sea Level Pressure 29.47 in    
Wind  
Wind Speed 9 mph (SW)    
Max Wind Speed 26 mph    
Max Gust Speed 41 mph    
Visibility 8 miles    
Events Rain , Thunderstorm    
Averages and records for this station are not official NWS values.
T = Trace of Precipitation, MM = Missing Value Source: NWS Daily Summary

Daily Weather History Graph

Daily Weather History Graph

Search for Another Location

Airport or City:

Trip Planner

Search our weather history database for the weather conditions in past years. The results will help you decide how hot, cold, wet, or windy it might be!

Date:

Astronomy

Apr. 08, 2013 Rise Set
Actual Time 6:05 AM MST 6:53 PM MST
Civil Twilight 5:40 AM MST 7:18 PM MST
Nautical Twilight 5:10 AM MST 7:48 PM MST
Astronomical Twilight 4:39 AM MST 8:19 PM MST
Moon 4:53 AM MST (4/8) 5:34 PM MST (4/8)
Length of Visible Light 13h 38m
Length of Day
12h 48m
Waning Crescent, 3% of the Moon is Illuminated
Apr 8
Waning Crescent
Apr 10
New
Apr 18
First Quarter
Apr 25
Full
May 2
Last Quarter

Hourly Weather History & Observations

Time (MST) Temp. Dew Point Humidity Pressure Visibility Wind Dir Wind Speed Gust Speed Precip Events Conditions
12:53 AM 73.9 °F 39.0 °F 28% 29.63 in 10.0 mi SW 6.9 mph - N/A   Clear
1:53 AM 71.1 °F 39.0 °F 31% 29.62 in 10.0 mi NE 3.5 mph - N/A   Clear
2:53 AM 70.0 °F 39.0 °F 32% 29.59 in 10.0 mi Calm Calm - N/A   Clear
3:53 AM 64.9 °F 41.0 °F 42% 29.58 in 10.0 mi Calm Calm - N/A   Clear
4:53 AM 64.9 °F 37.9 °F 37% 29.56 in 10.0 mi Calm Calm - N/A   Clear
5:53 AM 63.0 °F 37.9 °F 40% 29.55 in 10.0 mi Calm Calm - N/A   Clear
6:53 AM 64.0 °F 37.0 °F 37% 29.54 in 10.0 mi ESE 3.5 mph - N/A   Clear
7:53 AM 66.9 °F 37.0 °F 33% 29.53 in 10.0 mi SSE 6.9 mph - N/A   Clear
8:53 AM 71.1 °F 37.9 °F 30% 29.50 in 10.0 mi South 12.7 mph 21.9 mph N/A   Clear
9:53 AM 73.9 °F 39.0 °F 28% 29.49 in 10.0 mi South 9.2 mph 23.0 mph N/A   Clear
10:17 AM 75.2 °F 37.4 °F 25% 29.54 in 4.0 mi SSW 15.0 mph 26.5 mph N/A   Haze
10:53 AM 77.0 °F 37.0 °F 24% 29.46 in 10.0 mi SW 12.7 mph 26.5 mph N/A   Mostly Cloudy
11:53 AM 80.1 °F 35.1 °F 20% 29.42 in 10.0 mi WSW 21.9 mph 31.1 mph N/A   Clear
12:53 PM 80.1 °F 32.0 °F 17% 29.41 in 8.0 mi SW 26.5 mph 39.1 mph N/A   Partly Cloudy
1:29 PM 78.8 °F 33.8 °F 20% 29.46 in 5.0 mi WSW 19.6 mph 39.1 mph N/A   Haze
1:53 PM 78.1 °F 36.0 °F 22% 29.39 in 5.0 mi WSW 16.1 mph 36.8 mph N/A   Haze
2:29 PM 78.8 °F 39.2 °F 24% 29.43 in 4.0 mi WSW 21.9 mph 41.4 mph N/A   Haze
2:53 PM 78.1 °F 39.0 °F 25% 29.36 in 5.0 mi WSW 21.9 mph 33.4 mph N/A   Haze
3:27 PM 77.0 °F 37.4 °F 24% 29.40 in 3.0 mi WSW 23.0 mph 40.3 mph N/A   Haze
3:53 PM 75.9 °F 37.0 °F 24% 29.34 in 5.0 mi WSW 20.7 mph 33.4 mph N/A   Haze
4:35 PM 75.2 °F 39.2 °F 27% 29.40 in 7.0 mi SW 13.8 mph 21.9 mph 0.00 in Rain Light Rain
4:53 PM 75.9 °F 37.0 °F 24% 29.34 in 7.0 mi WSW 15.0 mph 26.5 mph 0.00 in   Overcast
5:27 PM 66.2 °F 50.0 °F 56% 29.43 in 4.0 mi Variable 5.8 mph - 0.03 in Rain , Thunderstorm Light Rain
5:42 PM 66.2 °F 48.2 °F 52% 29.42 in 7.0 mi WNW 8.1 mph - 0.05 in Rain Light Rain
5:53 PM 66.9 °F 45.0 °F 45% 29.37 in 10.0 mi Variable 5.8 mph - 0.05 in Rain Light Rain
6:53 PM 63.0 °F 41.0 °F 45% 29.41 in 6.0 mi West 12.7 mph 25.3 mph 0.02 in Rain Rain
7:53 PM 61.0 °F 39.9 °F 46% 29.44 in 8.0 mi Variable 6.9 mph - 0.02 in Rain Light Rain
8:53 PM 57.9 °F 39.0 °F 49% 29.47 in 10.0 mi NNW 8.1 mph 16.1 mph 0.01 in Rain Light Rain
9:53 PM 57.9 °F 37.9 °F 47% 29.46 in 10.0 mi Calm Calm - 0.00 in   Overcast
10:53 PM 55.9 °F 41.0 °F 57% 29.49 in 10.0 mi ESE 4.6 mph - N/A   Mostly Cloudy
11:53 PM 54.0 °F 42.1 °F 64% 29.50 in 10.0 mi SSE 8.1 mph - 0.00 in   Overcast